Location: Newark
(45.0333°N, 18.2865°E)
Time: 22:00:03
(UTC+00:00)

N. Korean satellite - Pass Details

Date: 22 September 2021
Orbit: 450 x 494 km, 97.3° (Epoch: 28 October)

Event Time Altitude Azimuth Distance (km) Brightness Sun altitude
Rises 03:19:30 0° 26° (NNE) 2,518 10.8 -13.8°
Reaches altitude 10° 03:21:55 10° 43° (NE) 1,645 10.1 -13.4°
Maximum altitude 03:24:41 21° 94° (E) 1,111 9.3 -12.9°
Drops below altitude 10° 03:27:28 10° 146° (SE) 1,654 9.5 -12.5°
Sets 03:29:53 0° 163° (SSE) 2,537 10.3 -12.0°
